TimeCDT,TemperatureF,Dew PointF,Humidity,Sea Level PressureIn,VisibilityMPH,Wind Direction,Wind SpeedMPH,Gust SpeedMPH,PrecipitationIn,Events,Conditions,WindDirDegrees,DateUTC
12:55 AM,70.2,63.1,78,29.81,10.0,SE,18.4,23.0,N/A,,Mostly Cloudy,130,2013-05-27 05:55:00
1:58 AM,69.1,61.5,77,29.81,10.0,SE,17.3,24.2,N/A,,Overcast,140,2013-05-27 06:58:00
2:23 AM,68.0,62.6,83,29.81,10.0,SE,16.1,24.2,N/A,Thunderstorm,Overcast,140,2013-05-27 07:23:00
2:29 AM,69.8,64.4,83,29.81,10.0,West,27.6,35.7,N/A,Thunderstorm,Thunderstorm,280,2013-05-27 07:29:00
2:35 AM,68.0,60.8,78,29.91,2.0,WNW,26.5,35.7,N/A,Rain-Thunderstorm,Thunderstorms and Rain,300,2013-05-27 07:35:00
2:40 AM,64.4,60.8,88,29.91,1.0,NW,15.0,35.7,N/A,Rain-Thunderstorm,Heavy Thunderstorms and Rain,310,2013-05-27 07:40:00
2:45 AM,62.6,62.6,100,29.91,0.2,NW,19.6,39.1,N/A,Fog-Rain-Thunderstorm,Heavy Thunderstorms and Rain,320,2013-05-27 07:45:00
2:55 AM,60.8,60.8,100,29.84,1.0,North,28.8,41.4,N/A,Rain-Thunderstorm,Heavy Thunderstorms and Rain,10,2013-05-27 07:55:00
3:02 AM,60.8,60.8,100,29.88,2.0,North,21.9,41.4,N/A,Rain-Thunderstorm,Thunderstorms and Rain,10,2013-05-27 08:02:00
3:09 AM,60.8,60.8,100,29.88,5.0,North,19.6,33.4,N/A,Rain-Thunderstorm,Light Thunderstorms and Rain,10,2013-05-27 08:09:00
3:25 AM,60.8,60.8,100,29.83,4.0,North,12.7,24.2,N/A,Rain-Thunderstorm,Thunderstorms and Rain,10,2013-05-27 08:25:00
3:55 AM,60.8,60.4,99,29.83,6.0,NE,13.8,25.3,0.50,Rain-Thunderstorm,Light Thunderstorms and Rain,40,2013-05-27 08:55:00
4:04 AM,60.8,60.8,100,29.86,8.0,ENE,13.8,27.6,N/A,Rain-Thunderstorm,Rain,60,2013-05-27 09:04:00
4:06 AM,60.8,60.8,100,29.86,7.0,ENE,10.4,20.7,N/A,Rain-Thunderstorm,Thunderstorms and Rain,60,2013-05-27 09:06:00
4:55 AM,60.8,60.4,99,29.79,10.0,East,9.2,19.6,0.14,Rain-Thunderstorm,Light Thunderstorms and Rain,90,2013-05-27 09:55:00
5:55 AM,60.6,60.3,99,29.81,10.0,East,10.4,-,0.26,Rain-Thunderstorm,Light Thunderstorms and Rain,100,2013-05-27 10:55:00
6:26 AM,60.8,60.8,100,29.73,10.0,East,13.8,-,N/A,Rain-Thunderstorm,Light Rain,100,2013-05-27 11:26:00
7:55 AM,62.4,61.3,96,29.80,6.0,WSW,12.7,20.7,0.01,Rain-Thunderstorm,Light Thunderstorms and Rain,240,2013-05-27 12:55:00
8:01 AM,62.6,62.6,100,29.86,10.0,West,18.4,31.1,N/A,Rain-Thunderstorm,Light Rain,260,2013-05-27 13:01:00
8:55 AM,61.9,61.5,99,29.78,9.0,Variable,6.9,-,0.03,Rain,Light Rain,0,2013-05-27 13:55:00
9:15 AM,62.6,62.6,100,29.81,10.0,SSE,10.4,-,N/A,,Mostly Cloudy,160,2013-05-27 14:15:00
9:55 AM,60.8,60.8,100,29.71,10.0,SE,13.8,-,N/A,,Mostly Cloudy,140,2013-05-27 14:55:00
10:08 AM,62.6,62.6,100,29.74,10.0,SSE,13.8,-,N/A,,Partly Cloudy,150,2013-05-27 15:08:00
10:27 AM,62.6,62.6,100,29.72,10.0,SSE,13.8,-,N/A,,Mostly Cloudy,160,2013-05-27 15:27:00
10:32 AM,62.6,62.6,100,29.73,10.0,SSE,15.0,-,N/A,,Scattered Clouds,160,2013-05-27 15:32:00
10:58 AM,64.2,63.7,98,29.72,10.0,SSE,17.3,25.3,N/A,,Partly Cloudy,160,2013-05-27 15:58:00
11:58 AM,68.0,62.6,83,29.79,10.0,Calm,Calm,-,N/A,,Mostly Cloudy,0,2013-05-27 16:58:00
12:28 PM,69.8,62.6,78,29.80,10.0,East,4.6,-,N/A,,Mostly Cloudy,100,2013-05-27 17:28:00
12:58 PM,70.5,63.7,79,29.80,10.0,Variable,5.8,-,N/A,,Partly Cloudy,0,2013-05-27 17:58:00
1:58 PM,73.6,63.3,70,29.78,10.0,ESE,9.2,-,N/A,,Clear,120,2013-05-27 18:58:00
2:58 PM,75.4,63.9,67,29.75,10.0,ENE,5.8,-,N/A,,Partly Cloudy,60,2013-05-27 19:58:00
3:58 PM,76.3,65.3,69,29.74,10.0,NNE,6.9,-,N/A,,Partly Cloudy,30,2013-05-27 20:58:00
4:58 PM,75.2,64.8,70,29.72,10.0,ESE,8.1,-,N/A,,Mostly Cloudy,110,2013-05-27 21:58:00
5:58 PM,75.2,65.8,73,29.71,10.0,East,8.1,-,N/A,,Overcast,80,2013-05-27 22:58:00
6:33 PM,73.4,66.2,78,29.70,10.0,ENE,10.4,-,N/A,,Mostly Cloudy,70,2013-05-27 23:33:00
6:58 PM,72.5,65.3,78,29.71,10.0,ENE,10.4,-,N/A,,Overcast,70,2013-05-27 23:58:00
7:58 PM,71.1,64.6,80,29.68,10.0,East,11.5,-,N/A,,Mostly Cloudy,80,2013-05-28 00:58:00
8:03 PM,69.8,64.4,83,29.68,10.0,East,12.7,-,N/A,,Scattered Clouds,80,2013-05-28 01:03:00
8:48 PM,69.8,64.4,83,29.71,10.0,East,8.1,-,N/A,,Mostly Cloudy,80,2013-05-28 01:48:00
8:58 PM,70.0,64.0,81,29.70,10.0,ENE,9.2,-,N/A,,Overcast,70,2013-05-28 01:58:00
9:24 PM,69.8,64.4,83,29.70,10.0,ENE,8.1,-,N/A,Thunderstorm,Overcast,70,2013-05-28 02:24:00
9:42 PM,69.8,64.4,83,29.70,10.0,ENE,6.9,-,N/A,Rain-Thunderstorm,Light Thunderstorms and Rain,60,2013-05-28 02:42:00
9:58 PM,69.3,64.6,85,29.70,10.0,NE,4.6,-,0.00,Rain-Thunderstorm,Light Thunderstorms and Rain,40,2013-05-28 02:58:00
10:08 PM,68.0,64.4,88,29.72,8.0,NNE,4.6,-,N/A,Rain-Thunderstorm,Light Thunderstorms and Rain,30,2013-05-28 03:08:00
10:16 PM,68.0,66.2,94,29.74,9.0,North,3.5,-,N/A,Rain-Thunderstorm,Light Thunderstorms and Rain,10,2013-05-28 03:16:00
10:25 PM,68.0,64.4,88,29.75,9.0,Variable,2.3,-,N/A,Rain-Thunderstorm,Thunderstorms and Rain,0,2013-05-28 03:25:00
10:58 PM,67.3,65.3,93,29.75,9.0,ESE,6.9,-,0.05,Rain-Thunderstorm,Light Thunderstorms and Rain,120,2013-05-28 03:58:00
11:13 PM,66.2,66.2,100,29.67,6.0,East,17.3,-,N/A,Rain-Thunderstorm,Light Thunderstorms and Rain,90,2013-05-28 04:13:00
11:15 PM,66.2,66.2,100,29.66,6.0,East,16.1,-,N/A,Rain-Thunderstorm,Rain,90,2013-05-28 04:15:00
11:24 PM,66.2,66.2,100,29.73,8.0,East,15.0,-,N/A,Rain-Thunderstorm,Light Rain,90,2013-05-28 04:24:00
11:25 PM,66.2,66.2,100,29.63,9.0,East,16.1,-,N/A,Rain,Light Rain,90,2013-05-28 04:25:00
11:50 PM,66.2,64.4,94,29.60,10.0,NNE,5.8,-,N/A,,Clear,30,2013-05-28 04:50:00
11:58 PM,66.9,63.3,88,29.60,10.0,NE,8.1,-,0.04,,Clear,40,2013-05-28 04:58:00